EW7225 Weather Reports


time (UTC)temp
C
wind
direction
speed
KPH
gust
KPH
rain 1hr
cm
rain 24hr
cm
rain mn
cm
humidity
%
barometer
mb
20260508011524 14 0.0 0.0 0.00 0.15 0.00 84 1010.5
20260508010517 13 0.0 0.0 0.00 0.20 0.00 85 1010.4
20260508005551 13 0.0 0.0 0.00 0.20 0.00 85 1010.6
20260508004524 13 0.0 0.0 0.00 0.20 0.00 86 1010.8
20260508003519 13 0.0 0.0 0.00 0.20 0.00 86 1010.8
20260508002532 14 0.0 0.0 0.00 0.20 0.00 85 1010.9
20260508001526 14 0.0 0.0 0.00 0.20 0.00 84 1011.1
20260508000518 14 0.0 0.0 0.00 0.20 0.00 84 1011.0
20260507235531 15 0.0 0.0 0.00 0.20 0.00 83 1011.0
20260507234525 15 0.0 0.0 0.00 0.20 0.00 82 1011.1
20260507233518 15 0.0 0.0 0.00 0.20 0.00 80 1011.3
20260507232532 15 0.0 0.0 0.00 0.20 0.00 79 1011.3
20260507231525 15 0.0 0.0 0.00 0.20 0.00 81 1011.6
20260507230519 15 0.0 0.0 0.00 0.20 0.00 81 1011.7
20260507225532 15 0.0 0.0 0.00 0.20 0.00 82 1011.7
20260507224546 15 0.0 0.0 0.00 0.20 0.00 81 1011.9
20260507223519 15 0.0 0.0 0.00 0.20 0.00 80 1011.9
20260507222533 15 0.0 0.0 0.00 0.20 0.00 82 1011.9
20260507221526 15 0.0 0.0 0.00 0.20 0.00 82 1012.1
20260507220522 15 0.0 0.0 0.00 0.20 0.00 82 1012.0
20260507215534 15 283 0.0 1.6 0.00 0.20 0.20 81 1012.0
20260507214527 15 0.0 0.0 0.00 0.20 0.20 82 1012.1
20260507213540 16 0.0 0.0 0.00 0.20 0.20 82 1012.2
20260507212533 15 0.0 0.0 0.00 0.20 0.20 81 1012.3
20260507211527 16 0.0 0.0 0.00 0.20 0.20 80 1012.4
20260507210522 16 0.0 0.0 0.00 0.20 0.20 81 1012.4
20260507205535 15 7 1.6 3.2 0.00 0.20 0.20 80 1012.2
20260507204530 16 0.0 0.0 0.00 0.20 0.20 80 1012.2
20260507203519 16 278 1.6 3.2 0.00 0.20 0.20 79 1012.3
20260507202533 16 299 1.6 3.2 0.00 0.20 0.20 76 1012.4
20260507201521 16 307 1.6 3.2 0.00 0.20 0.20 76 1012.5
20260507200533 16 0.0 0.0 0.00 0.20 0.20 77 1012.5
20260507195522 17 289 3.2 4.8 0.00 0.20 0.20 76 1012.4
20260507194533 17 292 4.8 9.7 0.00 0.20 0.20 71 1012.5
20260507193522 17 0.0 0.0 0.00 0.20 0.20 71 1012.5
20260507192533 17 268 0.0 1.6 0.00 0.20 0.20 71 1012.5
20260507191541 17 284 3.2 4.8 0.00 0.20 0.20 70 1012.4
20260507190533 17 287 3.2 6.4 0.00 0.20 0.20 70 1012.3
20260507185527 17 295 1.6 3.2 0.00 0.20 0.20 68 1012.4
20260507184520 18 341 0.0 3.2 0.00 0.20 0.20 68 1012.2
20260507183534 18 0.0 0.0 0.00 0.20 0.20 67 1012.4
20260507182527 18 313 1.6 3.2 0.00 0.20 0.20 65 1012.3
20260507181521 18 312 0.0 1.6 0.00 0.20 0.20 64 1012.4
20260507180534 19 293 1.6 4.8 0.00 0.20 0.20 64 1012.4
20260507175528 19 308 1.6 4.8 0.00 0.20 0.20 63 1012.5
20260507174521 20 0.0 0.0 0.00 0.20 0.20 63 1012.5
20260507173617 20 0.0 0.0 0.00 0.20 0.20 62 1012.5
20260507172529 20 291 1.6 4.8 0.00 0.20 0.20 63 1012.4
20260507171536 21 307 0.0 3.2 0.00 0.20 0.20 62 1012.4
20260507170528 21 279 1.6 6.4 0.00 0.20 0.20 62 1012.6
20260507165522 21 294 1.6 6.4 0.00 0.20 0.20 62 1012.5
20260507164535 21 273 0.0 3.2 0.00 0.20 0.20 61 1012.3
20260507163548 21 294 1.6 4.8 0.00 0.20 0.20 62 1012.2
20260507162522 21 272 1.6 6.4 0.00 0.20 0.20 62 1012.2
20260507161515 21 260 3.2 6.4 0.00 0.20 0.20 62 1012.3
20260507160530 21 279 3.2 11.3 0.00 0.20 0.20 61 1012.3
20260507155523 22 290 3.2 6.4 0.00 0.20 0.20 61 1012.3
20260507154537 22 285 1.6 6.4 0.00 0.20 0.20 61 1012.3
20260507153530 21 290 1.6 4.8 0.00 0.20 0.20 63 1012.2
20260507152522 22 266 3.2 11.3 0.00 0.20 0.20 61 1012.3
20260507151529 22 267 3.2 6.4 0.00 0.20 0.20 60 1012.4
20260507150520 22 273 1.6 4.8 0.00 0.20 0.20 62 1012.4
20260507145534 22 258 4.8 11.3 0.00 0.20 0.20 63 1012.5
20260507144525 23 260 3.2 9.7 0.00 0.20 0.20 62 1012.6
20260507143517 22 271 3.2 9.7 0.00 0.20 0.20 63 1012.5
20260507142527 22 254 3.2 6.4 0.00 0.20 0.20 65 1012.6
20260507141520 21 228 4.8 11.3 0.00 0.20 0.20 67 1012.9
20260507140532 21 245 4.8 11.3 0.00 0.20 0.20 67 1013.1
20260507135525 21 246 3.2 6.4 0.00 0.20 0.20 66 1013.2
20260507134519 21 268 3.2 9.7 0.00 0.20 0.20 66 1013.5
20260507133535 22 253 1.6 11.3 0.00 0.20 0.20 65 1013.6
20260507132526 21 262 3.2 6.4 0.00 0.20 0.20 63 1013.5
20260507131520 22 233 4.8 6.4 0.00 0.20 0.20 54 1013.6
20260507130533 22 283 1.6 6.4 0.00 0.20 0.20 55 1013.7
20260507125528 21 270 4.8 6.4 0.00 0.20 0.20 58 1013.7
20260507124517 23 250 1.6 6.4 0.00 0.20 0.20 57 1013.7
20260507123526 22 0.0 0.0 0.00 0.20 0.20 58 1013.9
20260507122517 22 269 3.2 9.7 0.00 0.20 0.20 60 1013.9
20260507121525 22 268 3.2 9.7 0.00 0.20 0.20 60 1014.0
20260507120532 22 0.0 0.0 0.00 0.20 0.20 59 1014.1
20260507115526 21 291 3.2 4.8 0.00 0.20 0.20 62 1014.1
20260507114520 21 235 1.6 4.8 0.00 0.20 0.20 62 1014.0
20260507113533 22 235 1.6 9.7 0.00 0.20 0.20 61 1014.2
20260507112547 22 345 1.6 4.8 0.00 0.20 0.20 60 1014.2
20260507111518 21 236 3.2 6.4 0.00 0.20 0.20 64 1014.4
20260507110612 21 25 3.2 6.4 0.00 0.20 0.20 58 1014.3
20260507105524 21 310 1.6 4.8 0.00 0.20 0.20 59 1014.5
20260507104537 21 274 1.6 6.4 0.00 0.20 0.20 61 1014.5
20260507103530 22 339 1.6 9.7 0.00 0.20 0.20 61 1014.6
20260507102524 21 299 1.6 4.8 0.00 0.20 0.20 64 1014.7
20260507101519 21 217 0.0 3.2 0.00 0.20 0.20 64 1014.8
20260507100528 20 227 1.6 9.7 0.00 0.20 0.20 65 1014.7
20260507095536 19 245 4.8 6.4 0.00 0.20 0.20 69 1014.9
20260507094522 20 203 3.2 9.7 0.00 0.20 0.20 69 1014.8
20260507093551 19 133 0.0 9.7 0.00 0.20 0.20 68 1014.8
20260507092523 18 148 3.2 9.7 0.00 0.20 0.20 71 1014.7
20260507091536 19 223 1.6 6.4 0.00 0.20 0.20 70 1014.8
20260507090531 18 171 3.2 9.7 0.00 0.20 0.20 73 1014.7
20260507085523 18 94 3.2 9.7 0.00 0.20 0.20 73 1014.9
20260507084517 18 135 3.2 9.7 0.00 0.20 0.20 73 1014.9
20260507083531 18 0.0 0.0 0.00 0.20 0.20 72 1014.9
20260507082524 18 251 0.0 1.6 0.00 0.20 0.20 74 1015.0
20260507081519 18 78 1.6 6.4 0.00 0.20 0.20 75 1015.1
20260507080531 18 293 0.0 1.6 0.00 0.20 0.20 73 1015.1
20260507075524 17 138 1.6 6.4 0.00 0.20 0.20 76 1015.1
20260507073531 17 210 0.0 3.2 0.00 0.20 0.20 76 1015.2
20260507072524 15 245 4.8 6.4 0.00 0.20 0.20 80 1015.3
20260507071518 16 227 4.8 6.4 0.00 0.20 0.20 79 1015.2
20260507070612 15 233 3.2 6.4 0.00 0.20 0.20 84 1015.0
20260507065525 15 215 1.6 4.8 0.00 0.20 0.20 88 1014.9
20260507064519 13 0.0 0.0 0.00 0.20 0.20 96 1014.8
20260507063615 14 0.0 0.0 0.00 0.20 0.20 98 1014.7
20260507062547 14 211 0.0 3.2 0.00 0.20 0.20 99 1014.7
20260507061519 13 182 1.6 4.8 0.00 0.23 0.20 99 1014.7
20260507060533 13 0.0 0.0 0.00 0.23 0.20 99 1014.7
20260507055526 12 0.0 0.0 0.00 0.28 0.20 99 1014.7
20260507054540 12 0.0 0.0 0.00 0.28 0.20 99 1014.8
20260507053534 12 0.0 0.0 0.00 0.30 0.20 99 1014.8
20260507052527 12 0.0 0.0 0.00 0.30 0.20 99 1014.8
20260507051540 12 0.0 0.0 0.00 0.30 0.20 99 1014.8
20260507050554 12 256 0.0 1.6 0.00 0.30 0.20 99 1014.7
20260507045528 12 253 0.0 1.6 0.00 0.30 0.20 98 1014.8
20260507044541 12 0.0 0.0 0.00 0.30 0.20 98 1014.6
20260507043535 11 0.0 0.0 0.00 0.30 0.20 98 1014.5
20260507042548 11 0.0 0.0 0.00 0.30 0.20 98 1014.5
20260507041541 11 0.0 0.0 0.00 0.30 0.20 98 1014.6
20260507040535 11 253 1.6 3.2 0.00 0.30 0.20 98 1014.7
20260507035549 11 233 0.0 3.2 0.00 0.30 0.20 98 1014.5
20260507034522 11 0.0 0.0 0.05 0.30 0.20 98 1014.5
20260507033536 11 0.0 0.0 0.08 0.30 0.20 98 1014.4
20260507032549 11 0.0 0.0 0.08 0.30 0.20 98 1014.4
20260507031522 11 281 0.0 1.6 0.08 0.30 0.20 98 1014.5
20260507030536 11 0.0 0.0 0.08 0.30 0.20 98 1014.5
20260507025529 11 0.0 0.0 0.08 0.30 0.20 98 1014.5
20260507024525 11 0.0 0.0 0.05 0.25 0.15 97 1014.5
20260507023516 11 0.0 0.0 0.03 0.23 0.13 97 1014.3
20260507022528 11 0.0 0.0 0.05 0.23 0.13 97 1014.5
20260507021522 11 0.0 0.0 0.08 0.23 0.13 97 1014.5
20260507020535 12 264 0.0 3.2 0.13 0.23 0.13 97 1014.5
20260507015528 12 0.0 0.0 0.13 0.23 0.13 96 1014.5
20260507014522 12 0.0 0.0 0.10 0.20 0.10 96 1014.6
20260507013537 12 0.0 0.0 0.10 0.20 0.10 96 1014.7
20260507012529 12 0.0 0.0 0.08 0.18 0.08 95 1014.7